User: anonymous   Login
Location: Unspecified
(0.0000°N, 0.0000°E)
Time: 17:41:29
(UTC+02:00)
Language:

Cosmos 1733 Rocket - Orbit

View from above orbital plane
View from above orbital plane
View from above satellite
View from above satellite

Ground track
Ground track

The orbit data is extracted from the following two-line orbital elements,

1 16612U 86018B   18173.91108403 +.00000061 +00000-0 +44495-5 0  9993
2 16612 082.5170 308.5936 0017998 014.5648 105.0745 14.84198143646446
Epoch (UTC): 22 June 2018 21:51:57
Eccentricity: 0.0017998
inclination: 82.5170°
perigee height: 603 km
apogee height: 628 km
right ascension of ascending node: 308.5936°
argument of perigee: 14.5648°
revolutions per day: 14.84198143
mean anomaly at epoch: 105.0745°
orbit number at epoch: 64644

The dashed part of the orbit path shows where the satellite is in the earth's shadow,  

DLR